[[{"header":{"parameterUnit":"m.s-1","parameterCategory":1,"la1":30.2991,"la2":30.254,"lo1":-89.0895,"lo2":-89.0444,"dy":0.0017,"dx":0.0017,"nx":28,"ny":28,"refTime":"2023-10-19T21:00:00:Z","depth":0,"parameterNumber":2,"parameterNumberName":"U-component_of_WINDS"},"data":[0,0,0,0,0,0,0,0,0,0,0,0,0,0,0,0,0,0,0,0,0,0,0,0,0,0,0,0,0,0,0,0,0,0,0,0,0,0,0,0,0,0,0,0,0,0,0,0,0,0,0,0,0,0,0,0,0,0,-3.756,-3.756,0,-3.7605,-3.7606,-3.7606,-3.7581,-3.758,-3.7578,-3.7577,-3.7621,-3.7623,-3.7626,0,0,0,0,0,0,0,0,0,0,0,0,0,-3.7451,-3.7453,-3.756,-3.756,-3.7561,-3.7605,-3.7606,-3.7606,-3.7581,-3.758,-3.7578,-3.7577,-3.762,-3.7623,-3.7626,0,0,0,0,0,0,0,0,0,0,0,0,0,-3.7498,-3.7454,-3.756,-3.7554,-3.7554,-3.7605,-3.7606,-3.7607,-3.7581,-3.758,-3.7578,-3.7576,-3.7619,-3.7623,-3.7626,-3.7685,0,0,-3.7637,-3.7639,0,0,0,0,0,0,0,0,-3.7495,-3.7502,-3.7554,-3.7554,-3.7554,-3.7586,-3.7584,-3.7633,-3.7582,-3.7571,-3.7577,-3.7575,-3.7611,-3.7615,-3.7627,-3.7687,-3.7689,-3.7637,-3.7639,-3.7641,-3.7642,0,0,0,0,0,0,0,-3.7492,-3.75,-3.7578,-3.7555,-3.7555,-3.7549,-3.7553,-3.7593,-3.7601,-3.7572,-3.757,-3.7576,-3.761,-3.7624,-3.7628,-3.769,-3.7637,-3.764,-3.7643,-3.7644,-3.7805,-3.7807,0,0,0,0,0,0,-3.7489,-3.7497,-3.7576,-3.7579,-3.752,-3.7552,-3.7557,-3.7577,-3.76,-3.7602,-3.7577,-3.7574,-3.7619,-3.7624,-3.763,-3.7702,-3.7641,-3.7644,-3.7646,-3.7803,-3.7805,-3.7808,0,0,0,0,0,0,-3.7487,-3.7497,-3.7574,-3.7538,-3.7547,-3.7556,-3.7579,-3.7579,-3.7593,-3.7604,-3.7606,-3.759,-3.7618,-3.7625,-3.7673,-3.7703,-3.7646,-3.7649,-3.78,-3.7803,-3.7806,-3.7845,0,0,0,0,0,0,-3.7484,-3.7496,-3.7518,-3.7538,-3.7549,-3.7616,-3.7581,-3.7581,-3.7599,-3.7596,-3.7616,-3.7618,-3.7617,-3.7668,-3.7676,-3.7707,-3.7652,-3.7797,-3.7802,-3.7805,-3.7841,-3.785,-3.7857,0,0,0,0,0,-3.748,-3.7526,-3.7519,-3.7529,-3.7577,-3.7618,-3.7624,-3.7622,-3.7602,-3.7624,-3.7633,-3.7617,-3.7699,-3.7673,-3.7682,-3.7714,-3.7795,-3.78,-3.7805,-3.7838,-3.7848,-3.7856,0,0,0,0,0,0,-3.7506,-3.7528,-3.7521,-3.7574,-3.7595,-3.7614,-3.7641,-3.7633,-3.7658,-3.7654,-3.7651,-3.7655,-3.7706,-3.7715,-3.7686,-3.7774,-3.7744,-3.7751,-3.7766,-3.7775,-3.7783,-3.7778,-3.7655,0,0,0,0,0,-3.7518,-3.755,-3.7568,-3.7613,-3.7624,-3.7632,-3.7649,-3.7647,-3.7667,-3.7675,-3.7687,-3.7707,-3.7738,-3.7757,-3.7786,-3.7844,-3.7849,-3.7871,-3.7879,-3.7885,-3.789,-3.7924,-3.7934,-3.7824,-3.7824,-3.7823,0,0,-3.7542,-3.7559,-3.7578,-3.7619,-3.7634,-3.7668,-3.7639,-3.7674,-3.7699,-3.7681,-3.7727,-3.7737,-3.776,-3.7814,-3.7838,-3.7823,-3.7923,-3.7891,-3.7896,-3.7898,-3.793,-3.794,-3.795,-3.7827,-3.7826,-3.7826,0,0,-3.7604,-3.762,-3.766,-3.7678,-3.7703,-3.7709,-3.7719,-3.7741,-3.7747,-3.7794,-3.7782,-3.7812,-3.7864,-3.7881,-3.7897,-3.7972,-3.796,-3.7982,-3.802,-3.8053,-3.8062,-3.807,-3.8097,-3.8106,-3.7988,-3.7988,-3.7988,0,-3.7631,-3.7681,-3.7682,-3.772,-3.7739,-3.7727,-3.7769,-3.7786,-3.7818,-3.7832,-3.7815,-3.7883,-3.7897,-3.7956,-3.7975,-3.7988,-3.8,-3.7978,-3.8061,-3.8069,-3.8076,-3.8101,-3.8112,-3.799,-3.799,-3.799,-3.799,0,-3.7713,-3.7749,-3.7779,-3.7813,-3.7836,-3.7875,-3.7883,-3.7906,-3.7904,-3.7912,-3.7962,-3.798,-3.8013,-3.8027,-3.8024,-3.8087,-3.8077,-3.8061,-3.803,-3.8089,-3.8113,-3.8123,-3.7994,-3.7993,-3.7992,-3.7992,0,0,-3.7786,-3.7826,-3.7836,-3.7853,-3.7883,-3.791,-3.7952,-3.7986,-3.8006,-3.8031,-3.8065,-3.8112,-3.8099,-3.8117,-3.8117,-3.8146,-3.8206,-3.8126,-3.8127,-3.814,-3.8278,-3.8288,-3.8299,-3.8199,-3.8201,-3.8203,-3.8275,0,-3.7849,-3.7921,-3.7926,-3.7991,-3.8024,-3.8017,-3.8053,-3.8076,-3.8086,-3.8116,-3.8127,-3.8161,-3.814,-3.8152,-3.8181,-3.8192,-3.8233,-3.8187,-3.823,-3.8232,-3.8223,-3.8312,-3.8322,-3.8389,-3.8285,-3.8287,-3.8288,0,-3.7931,-3.7961,-3.803,-3.8059,-3.8073,-3.8105,-3.8139,-3.8169,-3.8196,-3.8201,-3.8224,-3.8221,-3.8264,-3.8235,-3.8294,-3.8263,-3.8282,-3.8291,-3.8294,-3.8296,-3.8261,-3.8315,-3.8411,-3.8421,-3.8303,-3.8301,-3.83,0,-3.7977,-3.8035,-3.8085,-3.81,-3.8134,-3.8157,-3.8173,-3.8198,-3.822,-3.825,-3.8265,-3.8299,-3.8318,-3.8345,-3.8352,-3.8329,-3.8412,-3.8382,-3.8417,-3.8417,-3.8432,-3.843,-3.8531,-3.8448,-3.8448,-3.8447,-3.8447,0,-3.8046,-3.8088,-3.8106,-3.8136,-3.8184,-3.8192,-3.8239,-3.8253,-3.8277,-3.831,-3.8307,-3.8338,-3.8346,-3.8379,-3.8385,-3.8435,-3.8443,-3.8449,-3.8449,-3.8448,-3.8447,-3.8458,-3.8453,-3.845,-3.8449,-3.8449,-3.8448,0,-3.8103,-3.8117,-3.8171,-3.8202,-3.8211,-3.8245,-3.8271,-3.8301,-3.8313,-3.8355,-3.8366,-3.8384,-3.8423,-3.8434,-3.848,-3.8485,-3.8543,-3.854,-3.8534,-3.8533,-3.8567,-3.8563,-3.8676,-3.8692,-3.86,-3.8601,-3.8602,0,-3.8144,-3.8177,-3.8213,-3.8236,-3.8254,-3.829,-3.8314,-3.8324,-3.8348,-3.8385,-3.841,-3.845,-3.8482,-3.8546,-3.8563,-3.86,-3.8597,-3.8634,-3.8602,-3.86,-3.8596,-3.8593,-3.8597,-3.8639,-3.864,-3.8641,-3.8641,0,-3.8216,-3.8223,-3.8258,-3.8296,-3.8325,-3.8355,-3.8384,-3.8403,-3.8418,-3.8446,-3.8488,-3.8513,-3.8563,-3.8603,-3.8641,-3.8657,-3.8652,-3.8653,-3.8662,-3.8659,-3.8654,-3.8657,-3.8549,-3.8649,-3.8648,-3.8647,-3.8647,-3.8647,-3.8266,-3.8296,-3.8328,-3.8367,-3.8391,-3.842,-3.845,-3.8468,-3.8503,-3.8545,-3.855,-3.8595,-3.8626,-3.8677,-3.8696,-3.8732,-3.872,-3.8735,-3.8738,-3.8741,-3.8744,-3.8652,-3.8739,-3.8739,-3.8739,-3.8738,-3.8738,0,-3.8337,-3.8359,-3.8396,-3.8438,-3.847,-3.8466,-3.85,-3.8526,-3.8567,-3.8596,-3.8629,-3.8679,-3.8719,-3.8742,-3.8782,-3.8806,-3.8805,-3.8816,-3.8813,-3.8817,-3.8751,-3.8739,-3.8817,-3.8817,-3.8817,-3.8817,-3.8817,-3.8817,-3.8378,-3.8429,-3.8441,-3.8505,-3.8526,-3.8572,-3.8591,-3.8618,-3.8642,-3.8698,-3.8732,-3.8748,-3.8775,-3.8819,-3.8856,-3.8862,-3.8876,-3.8888,-3.8892,-3.883,-3.8822,-3.8814,-3.8802,-3.8892,-3.8892,-3.8955,-3.8956,-3.8956]},{"header":{"parameterUnit":"m.s-1","parameterCategory":1,"la1":30.2991,"la2":30.254,"lo1":-89.0895,"lo2":-89.0444,"dy":0.0017,"dx":0.0017,"nx":28,"ny":28,"refTime":"2023-10-19T21:00:00:Z","depth":0,"parameterNumber":3,"parameterNumberName":"V-component_of_WINDS"},"data":[0,0,0,0,0,0,0,0,0,0,0,0,0,0,0,0,0,0,0,0,0,0,0,0,0,0,0,0,0,0,0,0,0,0,0,0,0,0,0,0,0,0,0,0,0,0,0,0,0,0,0,0,0,0,0,0,0,0,-0.2549,-0.2549,0,-0.2568,-0.2569,-0.2569,-0.2548,-0.2547,-0.2546,-0.2545,-0.2569,-0.257,-0.2571,0,0,0,0,0,0,0,0,0,0,0,0,0,-0.2494,-0.2495,-0.2549,-0.2549,-0.2549,-0.2568,-0.2569,-0.2569,-0.2548,-0.2547,-0.2546,-0.2545,-0.2568,-0.257,-0.2571,0,0,0,0,0,0,0,0,0,0,0,0,0,-0.2516,-0.2495,-0.2549,-0.2541,-0.254,-0.2568,-0.2569,-0.2569,-0.2548,-0.2547,-0.2546,-0.2545,-0.2568,-0.257,-0.2572,-0.2609,0,0,-0.2578,-0.2579,0,0,0,0,0,0,0,0,-0.2515,-0.2518,-0.2542,-0.2541,-0.2541,-0.2554,-0.2558,-0.2583,-0.2549,-0.2545,-0.2545,-0.2544,-0.2565,-0.2567,-0.2574,-0.261,-0.2611,-0.2578,-0.2579,-0.258,-0.2581,0,0,0,0,0,0,0,-0.2513,-0.2517,-0.2556,-0.2542,-0.2542,-0.2537,-0.2539,-0.2562,-0.2562,-0.2546,-0.2544,-0.2546,-0.2565,-0.2572,-0.2574,-0.2611,-0.2578,-0.258,-0.2581,-0.2582,-0.2678,-0.2679,0,0,0,0,0,0,-0.2512,-0.2516,-0.2556,-0.2557,-0.2524,-0.2539,-0.2541,-0.2551,-0.2562,-0.2562,-0.2548,-0.2545,-0.2569,-0.2572,-0.2575,-0.2619,-0.258,-0.2582,-0.2583,-0.2677,-0.2678,-0.268,0,0,0,0,0,0,-0.2511,-0.2516,-0.2555,-0.2536,-0.2541,-0.2541,-0.2553,-0.2552,-0.256,-0.2563,-0.2563,-0.2555,-0.2568,-0.2572,-0.26,-0.262,-0.2583,-0.2585,-0.2675,-0.2677,-0.2679,-0.2708,0,0,0,0,0,0,-0.251,-0.2516,-0.253,-0.2536,-0.2542,-0.258,-0.2554,-0.2554,-0.2563,-0.256,-0.257,-0.257,-0.2567,-0.2597,-0.2602,-0.2622,-0.2587,-0.2674,-0.2676,-0.2679,-0.2705,-0.271,-0.2715,0,0,0,0,0,-0.2508,-0.2538,-0.2531,-0.2536,-0.2559,-0.2581,-0.2584,-0.2579,-0.2564,-0.2579,-0.2581,-0.257,-0.2616,-0.26,-0.2606,-0.2626,-0.2672,-0.2675,-0.2678,-0.2703,-0.2709,-0.2715,0,0,0,0,0,0,-0.2535,-0.2539,-0.2531,-0.2564,-0.2572,-0.2577,-0.2596,-0.2586,-0.26,-0.2597,-0.2591,-0.2593,-0.2623,-0.2627,-0.2609,-0.2662,-0.2642,-0.2646,-0.2659,-0.2665,-0.267,-0.2669,-0.2588,0,0,0,0,0,-0.2545,-0.2562,-0.2564,-0.2593,-0.2597,-0.2596,-0.2605,-0.26,-0.2609,-0.2613,-0.2617,-0.2626,-0.2642,-0.2654,-0.2669,-0.2705,-0.2707,-0.2721,-0.2726,-0.273,-0.2735,-0.2753,-0.276,-0.269,-0.269,-0.2689,0,0,-0.2566,-0.257,-0.2581,-0.2599,-0.2605,-0.2622,-0.2599,-0.2619,-0.2633,-0.2616,-0.2643,-0.2646,-0.2656,-0.2688,-0.2702,-0.2692,-0.2754,-0.2734,-0.2737,-0.2739,-0.2757,-0.2764,-0.277,-0.2692,-0.2691,-0.2691,0,0,-0.2613,-0.2618,-0.2642,-0.2647,-0.2656,-0.2654,-0.266,-0.2666,-0.2667,-0.2693,-0.2681,-0.2696,-0.2725,-0.2732,-0.274,-0.2787,-0.2778,-0.2792,-0.2818,-0.2837,-0.2842,-0.2847,-0.2864,-0.287,-0.2796,-0.2796,-0.2796,0,-0.2639,-0.2664,-0.2656,-0.2676,-0.2684,-0.2668,-0.2693,-0.2699,-0.2712,-0.2718,-0.2706,-0.2741,-0.2746,-0.278,-0.2791,-0.2797,-0.2804,-0.2792,-0.2842,-0.2847,-0.2851,-0.2868,-0.2874,-0.2797,-0.2797,-0.2797,-0.2797,0,-0.2695,-0.2713,-0.2731,-0.2743,-0.2753,-0.2776,-0.2771,-0.2782,-0.2775,-0.2775,-0.2801,-0.2807,-0.2822,-0.2829,-0.2824,-0.2862,-0.2855,-0.2843,-0.2823,-0.286,-0.2875,-0.2881,-0.28,-0.2799,-0.2799,-0.2798,0,0,-0.2763,-0.2768,-0.2775,-0.2779,-0.2786,-0.28,-0.2821,-0.2835,-0.2845,-0.2854,-0.2872,-0.2895,-0.2883,-0.2891,-0.2886,-0.2902,-0.2939,-0.2887,-0.2887,-0.2897,-0.298,-0.2991,-0.2998,-0.2932,-0.2933,-0.2934,-0.298,0,-0.2811,-0.2847,-0.2839,-0.2875,-0.2891,-0.2874,-0.2893,-0.2899,-0.2898,-0.2912,-0.2912,-0.2928,-0.2911,-0.2916,-0.293,-0.2931,-0.2956,-0.2927,-0.2949,-0.295,-0.2949,-0.3006,-0.3018,-0.3061,-0.2986,-0.2987,-0.2987,0,-0.2872,-0.2882,-0.2919,-0.2921,-0.2928,-0.2945,-0.2956,-0.2969,-0.2976,-0.2974,-0.2982,-0.2973,-0.2994,-0.2972,-0.3001,-0.2982,-0.299,-0.2992,-0.2993,-0.2996,-0.2972,-0.3012,-0.3075,-0.3082,-0.2997,-0.2996,-0.2995,0,-0.2919,-0.2941,-0.2966,-0.297,-0.2974,-0.2986,-0.2988,-0.2993,-0.3001,-0.3011,-0.3016,-0.3029,-0.3036,-0.3046,-0.3041,-0.3025,-0.3071,-0.3048,-0.3071,-0.3071,-0.3083,-0.3083,-0.3149,-0.3086,-0.3086,-0.3086,-0.3085,0,-0.2974,-0.2998,-0.2987,-0.3002,-0.3028,-0.3017,-0.3043,-0.3043,-0.3047,-0.3063,-0.3049,-0.3064,-0.3055,-0.3069,-0.3065,-0.309,-0.3093,-0.3093,-0.3092,-0.3095,-0.3095,-0.3101,-0.3099,-0.3087,-0.3087,-0.3087,-0.3086,0,-0.3032,-0.3025,-0.3051,-0.3051,-0.3052,-0.3071,-0.3071,-0.3085,-0.3082,-0.3102,-0.3106,-0.3102,-0.3117,-0.3112,-0.3129,-0.3126,-0.3158,-0.3152,-0.3156,-0.3155,-0.3178,-0.3176,-0.3252,-0.3262,-0.3191,-0.3192,-0.3192,0,-0.3068,-0.3086,-0.3087,-0.3095,-0.3098,-0.3112,-0.312,-0.311,-0.3119,-0.3126,-0.3139,-0.3153,-0.3164,-0.319,-0.3189,-0.3202,-0.3197,-0.3223,-0.3199,-0.3202,-0.3199,-0.3198,-0.32,-0.3228,-0.3229,-0.323,-0.323,0,-0.3134,-0.3129,-0.314,-0.315,-0.316,-0.3167,-0.3174,-0.3182,-0.3172,-0.3182,-0.3197,-0.3205,-0.3222,-0.3236,-0.3247,-0.325,-0.3239,-0.3237,-0.3243,-0.3248,-0.3249,-0.3249,-0.317,-0.3236,-0.3236,-0.3235,-0.3235,-0.3235,-0.3183,-0.3197,-0.32,-0.3212,-0.3215,-0.3221,-0.3234,-0.3232,-0.3244,-0.3256,-0.3249,-0.3266,-0.327,-0.3284,-0.3288,-0.3301,-0.3292,-0.33,-0.3303,-0.3306,-0.3309,-0.3245,-0.3303,-0.3303,-0.3303,-0.3303,-0.3303,0,-0.3248,-0.3248,-0.326,-0.3268,-0.3278,-0.3264,-0.327,-0.328,-0.3295,-0.3299,-0.3309,-0.3326,-0.3339,-0.3338,-0.335,-0.3361,-0.3356,-0.3365,-0.3365,-0.3366,-0.3316,-0.331,-0.3368,-0.3368,-0.3368,-0.3368,-0.3368,-0.3368,-0.3284,-0.3307,-0.3302,-0.3327,-0.3327,-0.3343,-0.3347,-0.3352,-0.3355,-0.3374,-0.3385,-0.3383,-0.3385,-0.3396,-0.3408,-0.3407,-0.3413,-0.3423,-0.3421,-0.3376,-0.3369,-0.3363,-0.3357,-0.3424,-0.3424,-0.3469,-0.3469,-0.347]}]]